Wind_Speed
6 6 6 7 8 8 8 7 7 7 7 8 7 7 7 8 7 7 7 7 7 7
7 6 6 7 7 8 8 8 8 9 9 9 8 8 8 9 8 8 8 7 8 9
8 7 6 7 8 8 9 9 10 9 9 9 9 9 10 10 9 10 9 8 9 10
9 8 8 9 9 9 9 9 9 9 10 10 10 9 10 10 10 10 10 10 11 11
11 10 10 10 10 9 10 10 11 10 10 9 9 9 10 10 10 10 11 11 11 13
14 13 13 13 12 11 11 11 10 10 10 10 10 10 10 10 10 10 10 11 12 12
19 18 16 14 14 13 12 12 11 11 11 10 10 10 10 10 10 9 10 11 13 13
22 20 18 17 15 14 13 13 13 13 12 12 12 11 11 11 11 12 12 11 11 12
23 21 21 19 17 15 15 15 15 15 14 14 14 13 13 13 14 14 14 14 12 12
24 23 22 20 18 18 17 16 17 16 16 17 16 14 14 13 14 16 16 16 16 16
24 24 21 19 20 20 19 18 18 17 16 17 19 18 16 15 15 17 19 18 17 17
23 22 20 21 22 21 19 18 19 17 17 19 21 19 18 16 17 19 21 18 17 17
19 22 22 22 22 20 18 18 17 17 18 19 20 21 19 19 19 20 22 22 21 20
14 14 15 17 16 16 16 16 17 19 19 19 19 20 20 20 21 22 24 24 25 26
Wind_Direction
273 287 303 314 317 319 316 311 302 287 279 286 286 283 280 283 285 285 282 282 282 284
263 280 300 312 314 317 310 302 296 287 282 285 281 277 273 274 277 276 278 280 282 282
259 274 291 302 303 303 308 304 300 293 287 285 283 279 275 274 274 273 278 282 282 282
262 277 285 293 296 296 297 295 296 299 300 300 298 292 285 283 282 278 278 278 277 278
256 264 270 274 280 281 290 296 298 293 287 282 278 278 277 276 274 275 278 282 281 284
253 258 263 267 275 279 283 284 281 282 284 285 284 280 276 273 272 273 275 279 280 282
253 256 258 261 266 271 274 278 282 282 281 279 277 275 276 275 273 271 276 278 278 279
255 256 257 257 261 265 267 271 275 273 272 275 275 277 276 275 274 281 286 287 287 286
254 256 255 255 256 257 261 266 269 267 268 271 273 275 274 276 281 285 285 290 291 291
257 256 258 256 255 254 256 261 263 266 270 275 281 282 280 277 279 279 280 285 291 294
259 254 257 256 254 255 256 260 266 268 270 277 285 289 286 282 281 277 278 279 282 283
265 255 259 257 257 258 259 262 265 270 280 286 290 294 294 291 283 276 275 279 279 275
279 267 261 261 262 261 262 269 272 278 289 291 291 296 297 296 292 286 286 290 290 287
291 281 274 278 276 270 272 272 275 281 285 287 289 291 294 295 289 284 284 284 289 290
Height
798 797 796 795 793 792 790 789 789 788 787 786 785 784 784 783 783 783 782 782 782 782
796 795 794 793 792 791 790 789 787 787 786 784 783 782 782 781 781 780 780 780 780 780
794 792 791 791 790 790 789 788 787 785 784 783 781 781 780 779 779 778 778 778 778 778
791 791 790 790 789 788 786 785 784 783 783 782 781 780 779 778 778 776 775 775 775 775
787 787 787 786 785 784 784 784 782 780 778 777 776 777 776 775 774 773 772 772 772 772
784 784 784 783 783 782 781 779 778 776 775 775 774 774 772 771 770 769 769 769 768 768
778 778 778 779 779 778 777 776 775 775 773 771 770 770 769 769 767 766 766 765 764 763
773 774 774 774 774 774 773 773 772 771 770 769 768 767 766 765 764 763 761 761 761 760
768 768 768 768 768 768 769 769 769 767 765 764 763 763 762 762 761 760 758 757 757 756
764 763 763 764 763 763 763 763 763 763 762 761 760 759 759 759 758 756 755 754 754 753
758 757 758 758 757 757 757 758 758 757 757 757 757 756 755 755 754 752 751 750 749 748
754 753 753 752 752 753 753 753 753 753 753 753 752 751 751 751 749 747 745 744 743 742
749 748 748 748 748 748 749 749 749 748 749 748 747 747 746 746 745 743 741 740 739 739
746 743 743 745 745 744 744 743 743 742 742 742 741 740 740 739 738 736 735 734 733 733